When you browse on this site, cookies collect data to enhance your experience and personalize the content and advertising you see.
Visit our Privacy Policy to learn more. By continuing to use the site, you agree to this use of cookies and data.
  • In Austria
  • List of Countries
  • For 7 days
  • Water Temperature
  • Weather Map
  • News
  • Weather Widgets
  • user-avatar
    Login

    Hourly Weather Sterling

    Today, 16 December, Monday

    Time Temperature Precipitation Wind Pressure Humidity
    00:00 0°C° 0.1 mm 3 mps 759 mmHg 77%
    01:00 0°C° 0.1 mm 3 mps 759 mmHg 83%
    02:00 -1°C° 0.3 mm 2 mps 759 mmHg 86%
    03:00 -1°C° 0.3 mm 2 mps 759 mmHg 89%
    04:00 +1°C° 0.3 mm 1 mps 759 mmHg 92%
    05:00 +1°C° 1 mm 1 mps 759 mmHg 94%
    06:00 +1°C° 1 mm 1 mps 759 mmHg 95%
    07:00 +1°C° 1 mm 1 mps 759 mmHg 97%
    08:00 +1°C° 0.6 mm 1 mps 759 mmHg 97%
    09:00 +1°C° 0.6 mm 2 mps 759 mmHg 97%
    10:00 +1°C° 0.6 mm 2 mps 759 mmHg 97%
    11:00 +1°C° 0.2 mm 2 mps 759 mmHg 97%
    12:00 +1°C° 0.2 mm 2 mps 758 mmHg 97%
    13:00 +1°C° 0.2 mm 2 mps 758 mmHg 97%
    14:00 +2°C° 0.5 mm 2 mps 757 mmHg 97%
    15:00 +2°C° 0.5 mm 2 mps 756 mmHg 97%
    16:00 +2°C° 0.5 mm 2 mps 756 mmHg 98%
    17:00 +2°C° 1.2 mm 2 mps 756 mmHg 98%
    18:00 +2°C° 1.2 mm 2 mps 756 mmHg 98%
    19:00 +2°C° 1.2 mm 2 mps 755 mmHg 98%
    20:00 +3°C° 0.1 mm 2 mps 755 mmHg 98%
    21:00 +3°C° 0.1 mm 2 mps 754 mmHg 98%
    22:00 +3°C° 0.1 mm 2 mps 754 mmHg 98%
    23:00 +3°C° 0.1 mm 2 mps 753 mmHg 99%

    Tomorrow, 17 December, Tuesday

    Time Temperature Precipitation Wind Pressure Humidity
    00:00 +3°C° 0.1 mm 2 mps 752 mmHg 99%
    01:00 +4°C° 0.1 mm 2 mps 751 mmHg 99%
    02:00 +4°C° 0.4 mm 2 mps 750 mmHg 99%
    03:00 +5°C° 0.4 mm 2 mps 749 mmHg 99%
    04:00 +6°C° 0.4 mm 2 mps 748 mmHg 99%
    05:00 +8°C° 0.1 mm 3 mps 747 mmHg 98%
    06:00 +10°C° 0.1 mm 3 mps 746 mmHg 97%
    07:00 +12°C° 0.1 mm 4 mps 745 mmHg 96%
    08:00 +13°C° 0.1 mm 4 mps 745 mmHg 95%
    09:00 +14°C° 0.1 mm 4 mps 744 mmHg 94%
    10:00 +15°C° 0.1 mm 4 mps 744 mmHg 92%
    11:00 +15°C° 1.2 mm 4 mps 744 mmHg 91%
    12:00 +14°C° 1.2 mm 4 mps 743 mmHg 90%
    13:00 +14°C° 1.2 mm 5 mps 743 mmHg 89%
    14:00 +13°C° 0 mm 6 mps 744 mmHg 84%
    15:00 +10°C° 0 mm 7 mps 745 mmHg 79%
    16:00 +7°C° 0 mm 8 mps 745 mmHg 73%
    17:00 +5°C° 0 mm 7 mps 747 mmHg 74%
    18:00 +3°C° 0 mm 7 mps 748 mmHg 74%
    19:00 +1°C° 0 mm 6 mps 749 mmHg 74%
    20:00 +1°C° 0 mm 6 mps 750 mmHg 75%
    21:00 -1°C° 0 mm 6 mps 750 mmHg 75%
    22:00 -1°C° 0 mm 6 mps 751 mmHg 75%
    23:00 -1°C° 0 mm 5 mps 751 mmHg 75%

    Day after tomorrow, 18 December, Wednesday

    Time Temperature Precipitation Wind Pressure Humidity
    00:00 -1°C° 0 mm 5 mps 752 mmHg 75%
    01:00 -2°C° 0 mm 4 mps 752 mmHg 75%
    02:00 -2°C° 0 mm 4 mps 752 mmHg 74%
    03:00 -2°C° 0 mm 3 mps 752 mmHg 74%
    04:00 -2°C° 0 mm 3 mps 752 mmHg 74%
    05:00 -2°C° 0 mm 3 mps 752 mmHg 74%
    06:00 -2°C° 0 mm 3 mps 753 mmHg 73%
    07:00 -2°C° 0 mm 3 mps 753 mmHg 73%
    08:00 -2°C° 0 mm 4 mps 753 mmHg 66%
    09:00 0°C° 0 mm 5 mps 753 mmHg 60%
    10:00 +1°C° 0 mm 5 mps 753 mmHg 53%
    11:00 +2°C° 0 mm 6 mps 752 mmHg 50%
    12:00 +2°C° 0 mm 7 mps 752 mmHg 47%
    13:00 +3°C° 0 mm 7 mps 751 mmHg 44%
    14:00 +2°C° 0 mm 7 mps 752 mmHg 44%
    15:00 0°C° 0 mm 7 mps 752 mmHg 44%
    16:00 -1°C° 0 mm 7 mps 752 mmHg 44%
    17:00 -3°C° 0 mm 6 mps 753 mmHg 47%
    18:00 -4°C° 0 mm 6 mps 754 mmHg 50%
    19:00 -6°C° 0 mm 6 mps 755 mmHg 52%
    20:00 -8°C° 0 mm 6 mps 756 mmHg 51%
    21:00 -8°C° 0 mm 7 mps 757 mmHg 50%
    22:00 -9°C° 0 mm 7 mps 758 mmHg 49%
    23:00 -11°C° 0 mm 7 mps 759 mmHg 50%

    19 December, Thursday

    Time Temperature Precipitation Wind Pressure Humidity
    00:00 -10°C° 0 mm 6 mps 759 mmHg 50%
    01:00 -10°C° 0 mm 6 mps 760 mmHg 50%
    02:00 -10°C° 0 mm 6 mps 761 mmHg 50%
    03:00 -11°C° 0 mm 6 mps 761 mmHg 50%
    04:00 -11°C° 0 mm 6 mps 762 mmHg 50%
    05:00 -11°C° 0 mm 5 mps 763 mmHg 50%
    06:00 -11°C° 0 mm 5 mps 763 mmHg 51%
    07:00 -10°C° 0 mm 4 mps 764 mmHg 51%
    08:00 -9°C° 0 mm 4 mps 765 mmHg 49%
    09:00 -9°C° 0 mm 4 mps 765 mmHg 47%
    10:00 -8°C° 0 mm 4 mps 766 mmHg 45%
    11:00 -7°C° 0 mm 4 mps 765 mmHg 43%
    12:00 -5°C° 0 mm 4 mps 765 mmHg 40%
    13:00 -4°C° 0 mm 4 mps 764 mmHg 38%
    14:00 -4°C° 0 mm 3 mps 764 mmHg 38%
    15:00 -2°C° 0 mm 2 mps 764 mmHg 39%
    16:00 -2°C° 0 mm 2 mps 764 mmHg 39%
    17:00 -1°C° 0 mm 1 mps 765 mmHg 43%
    18:00 -2°C° 0 mm 1 mps 765 mmHg 47%
    19:00 -4°C° 0 mm 0 mps 766 mmHg 50%
    20:00 -4°C° 0 mm 0 mps 766 mmHg 51%
    21:00 -3°C° 0 mm 1 mps 766 mmHg 51%
    22:00 -3°C° 0 mm 1 mps 766 mmHg 51%
    23:00 -3°C° 0 mm 1 mps 766 mmHg 51%

    20 December, Friday

    Time Temperature Precipitation Wind Pressure Humidity
    00:00 -3°C° 0 mm 1 mps 766 mmHg 50%
    01:00 -3°C° 0 mm 1 mps 765 mmHg 50%
    02:00 -3°C° 0 mm 1 mps 765 mmHg 50%
    03:00 -3°C° 0 mm 1 mps 765 mmHg 50%
    04:00 -3°C° 0 mm 1 mps 765 mmHg 49%
    05:00 -3°C° 0 mm 1 mps 765 mmHg 50%
    06:00 -3°C° 0 mm 1 mps 765 mmHg 50%
    07:00 -3°C° 0 mm 1 mps 765 mmHg 50%
    08:00 -2°C° 0 mm 1 mps 766 mmHg 47%
    09:00 -1°C° 0 mm 1 mps 766 mmHg 44%
    10:00 +1°C° 0 mm 1 mps 766 mmHg 41%
    11:00 +2°C° 0 mm 1 mps 765 mmHg 41%
    12:00 +3°C° 0 mm 1 mps 765 mmHg 41%
    13:00 +4°C° 0 mm 1 mps 764 mmHg 40%
    14:00 +3°C° 0 mm 1 mps 764 mmHg 45%
    15:00 +3°C° 0 mm 1 mps 764 mmHg 49%
    16:00 +2°C° 0 mm 1 mps 764 mmHg 53%
    17:00 +2°C° 0 mm 1 mps 764 mmHg 56%
    18:00 +1°C° 0 mm 1 mps 764 mmHg 59%
    19:00 +1°C° 0 mm 1 mps 764 mmHg 62%
    20:00 +1°C° 0 mm 1 mps 764 mmHg 63%
    21:00 +1°C° 0 mm 1 mps 763 mmHg 65%
    22:00 +1°C° 0 mm 1 mps 763 mmHg 66%
    23:00 +1°C° 0 mm 1 mps 763 mmHg 68%

    21 December, Saturday

    Time Temperature Precipitation Wind Pressure Humidity
    00:00 +1°C° 0 mm 1 mps 762 mmHg 70%
    01:00 +1°C° 0 mm 1 mps 762 mmHg 72%
    02:00 +1°C° 0 mm 1 mps 762 mmHg 75%
    03:00 +1°C° 0 mm 1 mps 761 mmHg 78%
    04:00 +1°C° 0 mm 1 mps 761 mmHg 81%
    05:00 +1°C° 0 mm 1 mps 761 mmHg 83%
    06:00 -1°C° 0 mm 0 mps 761 mmHg 84%
    07:00 -1°C° 0 mm 0 mps 760 mmHg 86%
    08:00 0°C° 0 mm 0 mps 760 mmHg 81%
    09:00 +2°C° 0 mm 1 mps 760 mmHg 76%
    10:00 +3°C° 0 mm 1 mps 760 mmHg 71%
    11:00 +5°C° 0 mm 1 mps 759 mmHg 67%
    12:00 +6°C° 0 mm 1 mps 758 mmHg 63%
    13:00 +7°C° 0 mm 1 mps 757 mmHg 60%
    14:00 +7°C° 0 mm 1 mps 757 mmHg 63%
    15:00 +6°C° 0 mm 1 mps 756 mmHg 67%
    16:00 +6°C° 0 mm 1 mps 756 mmHg 70%
    17:00 +5°C° 0 mm 1 mps 756 mmHg 74%
    18:00 +4°C° 0 mm 1 mps 756 mmHg 79%
    19:00 +3°C° 0 mm 1 mps 756 mmHg 83%
    20:00 +3°C° 0 mm 1 mps 756 mmHg 84%
    21:00 +2°C° 0 mm 1 mps 756 mmHg 86%
    22:00 +2°C° 0 mm 1 mps 756 mmHg 87%
    23:00 +2°C° 0 mm 1 mps 756 mmHg 86%
    Show more